Miscellaneous Local Product
Issued by NWS North Platte, NE

Home | Current Version | Previous Version | Graphics & Text | Print | Product List | Glossary On
Versions: 1 2 3 4 5 6 7 8 9 10 11 12 13 14 15 16 17 18 19 20 21 22 23 24 25 26 27 28 29 30 31 32 33 34 35 36 37 38 39 40 41 42 43 44 45 46 47 48 49 50
000
AXUS43 KLBF 162110
MISLBF


WESTERN AND NORTH CENTRAL NEBRASKA HOURLY WEATHER ROUNDUP
NATIONAL WEATHER SERVICE NORTH PLATTE NE
300 PM CST TUE DEC 16 2014

***STATIONS NOT REPORTING VARIABLES SUCH AS SKY/WEATHER OR
PRESSURE ARE PROVIDED BY THE NEBRASKA DEPARTMENT OF
ROADS...RAWS...AND APRS NETWORKS...AND ARE NOT UNDER
NATIONAL WEATHER SERVICE QUALITY CONTROL***

...OBSERVATIONS IN AND NEAR THE EASTERN PANHANDLE OF NEBRASKA...

CITY           SKY/WX    TMP DP  RH WIND       PRES   REMARKS
PINE RIDGE     CLOUDY    23  18  81 S3        30.17F
CHADRON        CLOUDY    23  17  78 SE8       30.16F WCI  14
ALLIANCE       CLOUDY    22  19  89 SE8       30.12F WCI  12
SIDNEY         MOSUNNY   28  18  66 SE9       30.10F WCI  19
WHITECLAY        N/A     22  17  81 S9          N/A  WCI  11
CRESCENT LAKE    N/A     23  20  89 SE5         N/A  WCI  17
LISCO            N/A     23  20  87 E10         N/A  WCI  13
BIG SPRINGS      N/A     21  20  94 E6          N/A  WCI  13
$$

...OBSERVATIONS IN NORTH CENTRAL NEBRASKA...

CITY           SKY/WX    TMP DP  RH WIND       PRES   REMARKS
VALENTINE      CLOUDY    22  16  78 CALM      30.25S
THEDFORD       CLOUDY    21  18  87 CALM      30.24S
AINSWORTH      CLOUDY    21  17  85 NW3       30.25S
O`NEILL        CLOUDY    21  18  88 NW7       30.29F WCI  12
ORD            CLOUDY    23  17  78 N12       30.28S WCI  12
BROKEN BOW     CLOUDY    23  21  92 NW6       30.26S WCI  16
BROWNLEE         N/A     20  16  86 CALM        N/A
SPRINGVIEW       N/A     21  16  81 NW3         N/A
BREWSTER         N/A     25  21  86 W5          N/A  WCI  19
ROSE             N/A     26  26  99 CALM        N/A
SARGENT          N/A     23  20  89 W3          N/A
COMSTOCK         N/A     29  23  79 NW6         N/A  WCI  23
CHAMBERS         N/A     23  15  70 CALM        N/A
EWING            N/A     20  18  92 CALM        N/A
$$

...OBSERVATIONS IN SOUTHWEST NEBRASKA AND FAR NORTHEAST COLORADO...

CITY           SKY/WX    TMP DP  RH WIND       PRES   REMARKS
WRAY           FAIR      26  22  84 E5        30.16F WCI  21
IMPERIAL       CLOUDY    23  20  88 E3        30.20F
OGALLALA       CLOUDY    22  21  96 SE3       30.20F
NORTH PLATTE   SUNNY     24  17  74 CALM      30.25F
MCCOOK         SUNNY     31  20  63 NE6       30.24F WCI  25
LEXINGTON      CLOUDY    24  19  81 NW5       30.28R WCI  19
PAXTON           N/A     24  21  88 CALM        N/A
BRADY            N/A     22  17  82 CALM        N/A
GOTHENBURG       N/A     22  17  79 CALM        N/A
CALLAWAY         N/A     21  19  91 N3          N/A
$$

...NORTH PLATTE AREA...

CITY           SKY/WX    TMP DP  RH WIND       PRES   REMARKS
AIRPORT        SUNNY     24  17  74 CALM      30.25F
DOWNTOWN         N/A     25  19  76 CALM        N/A
$$

...SOME WEATHER OBSERVATIONS FROM AROUND THE REGION...

CITY           SKY/WX    TMP DP  RH WIND       PRES   REMARKS
DENVER         CLOUDY    30  21  69 NW5       30.03F WCI  25
LARAMIE        CLOUDY    33  22  63 SE6       30.01F WCI  28
CHEYENNE       CLOUDY    32  17  54 CALM      30.03R
SCOTTSBLUFF    CLOUDY    17  14  88 SE9       30.12F WCI   6
RAPID CITY     CLOUDY    24  19  81 S12       30.16F WCI  13
PIERRE         CLOUDY    22  15  75 N9        30.29F WCI  12
WINNER         CLOUDY    22  16  78 N5        30.28F WCI  16
SIOUX FALLS    MOSUNNY   17  10  74 NW14      30.27S WCI   3
OMAHA          MOSUNNY   29  18  63 NW18      30.30S WCI  16
GRAND ISLAND   CLOUDY    24  18  77 NW14      30.31S WCI  12
KANSAS CITY    CLOUDY    30  22  72 NW10      30.29R WCI  21
WICHITA        MOSUNNY   41  23  48 N10       30.29F
HAYS           SUNNY     34  18  51 N7        30.28F WCI  28
LIBERAL        PTSUNNY   41  18  38 SE7       30.23F
GOODLAND       PTSUNNY   37  13  37 SE7       30.16F WCI  32
$$



USA.gov is the U.S. government's official web portal to all federal, state and local government web resources and services.